Flag for Germany Weather past 2 weeks in Aachen, North Rhine-Westphalia, Germany

Now
35 °F

Sunny.


Feels Like: 32 °F
Forecast: 34 / 58 °F
Wind: 3 mph from Northeast

Location: Maastricht Airport Zuid Limburg

Current Time: Apr 18, 2015 at 7:55:27 AM

Latest Report: Apr 18, 2015 at 7:00 AM


Visibility: 16 mi

Pressure: 30.29 "Hg

Humidity: 90%

Dew point: 32 °F

Location of AachenLocation

Historic Weather in Aachen — Graph

°F

Aachen temperature yesterday

Maximum temperature yesterday: 56 °F (at 2:00 PM)
Minimum temperature yesterday: 43 °F (at 7:00 AM)
Average temperature yesterday: 50 °F

Past Weeks' High & Low Weather Summary

 TemperatureHumidityPressure
High75 °F (Apr 15, 6:00 PM)99% (Apr 7, 4:00 AM)30.66 "Hg (Apr 7, 4:00 AM)
Low32 °F (Apr 3, 7:00 AM)27% (Apr 10, 3:00 PM)29.93 "Hg (Apr 16, 7:00 PM)
Average50 °F67%30.26 "Hg
* Reported Apr 3 6:00 AM — Apr 18 6:00 AM, Aachen, Weather by CustomWeather, © 2015

Note: Actual official high and low records may vary slightly from our data, if they occured in-between our weather recording intervals... More about our weather records

Advertising

Aachen weather history for previous 24 hours

 ConditionsComfort  
Time TempWeatherWind HumidityBarometerVisibility
6:00 AM
Sat, Apr 18
36 °FClear.5 mph88%30.28 "Hg16 mi
4:00 AM37 °FClear.3 mph84%30.27 "Hg19 mi
3:00 AM39 °FClear.5 mph80%30.26 "Hg19 mi
2:00 AM41 °FClear.6 mph74%30.26 "Hg19 mi
1:00 AM43 °FClear.7 mph69%30.24 "Hg25 mi
12:00 AM44 °FClear.7 mph63%30.22 "Hg25 mi
10:00 PM
Fri, Apr 17
47 °FClear.7 mph57%30.17 "Hg25 mi
9:00 PM48 °FPassing clouds.5 mph57%30.15 "Hg28 mi
8:00 PM51 °FSunny.7 mph52%30.12 "Hg25 mi
7:00 PM53 °FPartly sunny.8 mph46%30.10 "Hg25 mi
6:00 PM54 °FPassing clouds.7 mph48%30.09 "Hg19 mi
5:00 PM54 °FOvercast.7 mph49%30.09 "Hg19 mi
4:00 PM54 °FScattered clouds.7 mph55%30.09 "Hg17 mi
3:00 PM55 °FPassing clouds.8 mph53%30.08 "Hg16 mi
2:00 PM56 °FPartly sunny.8 mph50%30.07 "Hg15 mi
1:00 PM54 °FOvercast.7 mph48%30.07 "Hg14 mi
12:00 PM52 °FOvercast.8 mph50%30.06 "Hg22 mi
11:00 AM51 °FOvercast.7 mph53%30.05 "Hg19 mi
10:00 AM48 °FOvercast.9 mph59%30.03 "Hg15 mi
9:00 AM44 °FOvercast.6 mph73%30.03 "Hg19 mi
7:00 AM43 °FOvercast.6 mph74%29.99 "Hg22 mi
Weather by CustomWeather, © 2015

See weather overviewHow to use our weather pages